Location: Hardenberg
(52.5670°N, 6.6170°E)
Time: 13:00:53
(UTC+01:00)

ISS - Visible Passes

Search period start: 03 December 2022 00:00
Search period end: 13 December 2022 00:00
Orbit: 414 x 420 km, 51.6° (Epoch: 03 December)

Date Brightness Start Highest point End Pass type
(mag) Time Alt. Az. Time Alt. Az. Time Alt. Az.
03 Dec -2.8 17:51:03 10° W 17:54:17 44° SSW 17:57:24 11° SE visible
03 Dec -0.8 19:28:44 10° WSW 19:30:21 13° SW 19:30:21 13° SW visible
04 Dec -3.1 17:02:55 10° W 17:06:14 56° SSW 17:09:30 10° ESE visible
04 Dec -1.2 18:40:05 10° W 18:42:31 19° SW 18:44:45 11° S visible
05 Dec -1.6 17:51:42 10° W 17:54:33 26° SSW 17:57:23 10° SSE visible
06 Dec -2.0 17:03:25 10° W 17:06:31 35° SSW 17:09:36 10° SE visible
07 Dec -0.6 17:52:46 10° WSW 17:54:35 14° SW 17:56:23 10° S visible
08 Dec -0.8 17:04:05 10° W 17:06:35 20° SW 17:09:04 10° SSE visible
